Tracking 29892 objects as of 21-Nov-2024
HD Live streaming from Space Station
objects crossing your sky now

STARLINK-6162

Track STARLINK-6162 now!
10-day predictions
STARLINK-6162 is classified as:


NORAD ID: 57131
Int'l Code: 2023-090AG
Perigee: 565.0 km
Apogee: 567.4 km
Inclination: 43.0 °
Period: 95.8 minutes
Semi major axis: 6937 km
RCS: Unknown
Launch date: June 23, 2023
Source: United States (US)
Launch site: AIR FORCE EASTERN TEST RANGE (AFETR)
Your satellite tracking list
Your tracking list is empty




NASA's NSSDC Master Catalog

Two Line Element Set (TLE):
1 57131U 23090AG  24325.40838264  .00000748  00000-0  70466-4 0  9998
2 57131  43.0057 319.2173 0001701 266.0706  93.9942 15.02541009 79021
Source of the keplerian elements: AFSPC